Погода в Гиганте

Поиск расширенной информации на нашем сайте:

Полезная информация:

Новости сайта



02.01.2020
Опубликован Долгосрочный прогноз погоды по городам России и ближнего зарубежья на январь 2020 года.
Карты: Прогноз на январь и февраль 2020 года, Сравнение прогнозируемой аномалии приземной температуры воздуха на январь 2020 года по разным моделям.




Погода в Гиганте - сегодня

Время (UTC), дата Ветер
(°,м/с) 
Видим.   Явления Облачность Т
(°С)
Тd
(°С)
f(%) Тe
(°С)
Pmin
(гПа)
dP
(гПа)
Po
(мм)
O2
(г/м3)
Тmin Tmax R s Состояние
почвы
15 18.10.20 250 (З) 20000 м    9/6 600 м средняя, верхняя 
[Sc|Ac trans|Ci fib]
+21.2 +13.9 63 +28  1014  0.7  754  279    +24.9       
18 18.10.20 350 (С) 20000 м    10/10 600 м 
[Sc]
+19.5 +12.5 64 +26  1015  754  281           
21 18.10.20 тихо () {11}  4000 м  дымка{гроза, ливн. осадки}  10/10 600 м кучево-дожд. 
[Cb cap]
+15.5 +15.2 98 +24  1015.8  0.6  755  285           
00 19.10.20 290 (З) 4000 м  дымка{гроза, ливн. осадки}  10/10 600 м кучево-дожд. 
[Cb cap]
+15.6 +15.4 99 +26  1016.1  0.3  755  285           
03 19.10.20 350 (С) 4000 м  слаб. ливневой дождь  10/10 600 м кучево-дожд. 
[Cb cap]
+14 +13.4 96 +21  1017.5  1.3  756  287  +14    13    влажная 
06 19.10.20 350 (С) 4000 м  дымка{ливн. осадки}  9/5 600 м кучево-дожд., средняя, верхняя 
[Cb cap|Ac lent|Ci]
+13.8 +12.9 94 +19  1018.1  0.6  757  288  +13.3         
09 19.10.20 030 (СВ) 20000 м    9/3 600 м средняя 
[Sc|Ac lent]
+15 +12 82 +19  1017.2  -0.9  756  286           
12 19.10.20 050 (СВ) 4000 м  в посл. час ливневой дождь  10/0 кучево-дожд. 
[Cb cap]
+15.7 +12.7 82 +22  1016.6  -0.5  755  285           
15 19.10.20 360 (С) 4000 м  ливневой дождь  10/10 600 м кучево-дожд. 
[Cb cap]
+13.4 +12.9 97 +18  1015.8  -0.8  755  287    +15.8     
18 19.10.20 350 (С) 4{10}  4000 м  дымка{ливн. осадки}  10/10 600 м кучево-дожд. 
[Cb cap]
+11.3 +10.7 96 +13  1018.5  2.6  757  291           
21 19.10.20 320 (СЗ) 4000 м  в посл. час ливневой дождь  6/6 600 м кучево-дожд. 
[Cb cap]
+10.4 +9.8 96 +12  1021.3  2.7  759  293           
00 20.10.20 270 (З) 4000 м  дымка{ливн. осадки}  10/10 600 м 
[Sc]
+10.7 +10.1 96 +13  1023  1.7  760  293           
03 20.10.20 270 (З) 4000 м  дымка  10/10 600 м 
[Sc]
+11 +10.4 96 +12  1023.8  0.8  761  293  +10.3    12    влажная 
06 20.10.20 290 (З) 20000 м    1/0 средняя 
[Ac trans]
+11.4 +7.7 78 +12  1024.9  1.1  762  293           
09 20.10.20 280 (З) 20000 м    5/5 600 м 
[Cu med, cong]
+14.2 +4.3 51 +14  1024.7  0.1  761  291           
12 20.10.20 280 (З) 20000 м    8/8 1000 м 
[Cu med, cong]
+14 +3.2 48 +14  1024.3  -0.5  761  291           
15 20.10.20 280 (З) 20000 м    1/1 600 м 
[Sc diur, vesp]
+11 +4.3 63 +11  1024.9  0.5  762  294    +14.4       
18 20.10.20 290 (З) 20000 м    ясно 
+8.9 -1.2 49 +9  1025.8  0.8  762  298           
21 20.10.20 280 (З) 20000 м    ясно 
+7.5 -0.3 58 +7  1026.7  0.8  763  299           
00 21.10.20 300 (СЗ) 20000 м    ясно 
+7.6 +1.4 65 +8  1027.4  0.7  763  299           
03 21.10.20 320 (СЗ) 20000 м    ясно верхняя 
[Ci fib]
+4.6 +1.3 79 +3  1028.9  1.7  764  303  +4.5        влажная 
06 21.10.20 330 (СЗ) 20000 м    ясно 
+7.9 +1.7 65 +8  1030.2  1.4  765  299  +3.9         
09 21.10.20 310 (СЗ) 20000 м    1/0 верхняя 
[Ci fib]
+11.8 +0.8 47 +12  1029.6  -0.4  765  295           
12 21.10.20 290 (З) 20000 м    8/0 верхняя 
[Ci fib]
+12.6 -0.6 40 +12  1028.3  -1.3  764  294           
15 21.10.20 тихо ()   20000 м    9/3 600 м средняя, верхняя 
[Sc|Ac trans|Ci fib]
+7.9 +2.2 67 +8  1028  -0.5  764  299    +12.9       
Время (UTC), дата Ветер
(°,м/с) 
Видим.   Явления Облачность Т
(°С)
Тd
(°С)
f(%) Тe
(°С)
Pmin
(гПа)
dP
(гПа)
Po
(мм)
O2
(г/м3)
Тmin Tmax R s Состояние
почвы

Для получения пояснительной информации подведите курсор к названию столбца.

ПОГОДА в Гиганте - архив

Всё, что Вы хотите узнать о погоде в Гиганте - удобно и подробно!

Выберите нужную дату (начиная с 1 января 2019* года) и нажмите кнопку "Найти".
Будут отображены архивные сводки погоды по пункту Гигант, начиная с указанной даты.


Отображать данные в формате CSV (для использования в таблицах Excel)


Внимание! Наш архив погоды предназначен исключительно для личного некоммерческого использования в познавательных целях. Если Вам необходимы официальные справки о состоянии погоды (для производственных, юридических, коммерческих и т.п. целей), обращайтесь в органы Росгидромета.

*Примечание: данная дата относится к архиву по метеостанциям СССР (Россия, СНГ, Балтия).
Архив по метеостанциям Зарубежной Европы и Азии (кроме Китая) хранится 10 дней, по другим регионам земного шара (Китай, Африка, Америка, Австралия, Океания) - 1 день.

Гигант - район местоположения метеостанции


Название, широта, долгота, высота метеостанции:
Гигант 46.5°ш. 41.3°д. 79 м над ур. моря [Российская Федерация]

Дополнительная информация

В oтличие oт бoльшинства пoгoдных сайтoв мы публикуем пoдрoбную метеoинфoрмацию в детальнoм прoфессиoнальнoм фoрмате.

Характеристики температуры и влажнoсти вoздуха измеряются на высoте 2 м в тени вдали oт зданий и деревьев.
Скoрoсть ветра измеряется на высoте 10 м (на урoвне рoста челoвека скoрoсть ветра ниже в 1.5-2 раза). Если метеoстанция нахoдится в гoрoде или в лесу, тo скoрoсть ветра занижена на 2-4 м/с пo сравнению с oткрытым местoм. Скoрoсть ветра над акватoриями крупных рек и oзёр, а также на вершинах хoлмoв на 2-5 м/с выше, чем в oбычных услoвиях.
Атмoсфернoе давление в разных тoчках местнoсти мoжет значительнo oтличаться oт давления на метеoстанции, в зависимoсти oт услoвий рельефа (при пoдъёме на 10 м давление пoнижается примернo на 1 мм рт.ст.).